contact:dominique.lefevre@mio.osupytheas.fr, maurice.libes@osupytheas.fr, didier.mallarino@osupytheas.fr
Project:EMSO http://www.emso-fr.org/EMSO-France
Depth: 2436.0 m
Title:EMSO Ligure Ouest : Data MII capteur AQUADOPP
Date,Latitude,Longitude,X_East,Y_North,Z_Up,Amplitude_X,Amplitude_Y,Amplitude_Z,Batterie,SoundSpeed,Heading,Pitch,Roll,Pressure,TIS,Speed,Direction
, degrees North, degrees East, m.s-1, m.s-1,m.s-1, 1, 1, 1, Volt, m.s-1, degree, degree, degree, dbar, degree_C, m.s-1, degree
2023-06-14T00:04:03,42.805,6.029,0.021,0.004,-0.005,100.0,104.0,101.0,13.4,1505.2,319.4,-0.7,1.8,2471.463,13.28,0.021,79.2
2023-06-14T00:07:03,42.805,6.029,0.033,-0.024,-0.021,102.0,102.0,101.0,13.4,1505.2,332.9,-0.8,1.8,2471.445,13.28,0.04,126.0
2023-06-14T00:10:03,42.805,6.029,0.036,-0.035,-0.006,101.0,102.0,102.0,13.4,1505.2,341.9,-0.7,1.8,2471.421,13.28,0.05,134.2
2023-06-14T00:13:03,42.805,6.029,0.046,-0.014,0.01,100.0,104.0,101.0,13.4,1505.2,324.0,-0.8,1.8,2471.466,13.28,0.048,106.9
2023-06-14T00:16:03,42.805,6.029,0.051,-0.034,-0.036,100.0,102.0,102.0,13.4,1505.2,330.3,-0.8,1.8,2471.394,13.29,0.061,123.7
2023-06-14T00:19:03,42.805,6.029,0.041,-0.02,-0.023,103.0,101.0,101.0,13.4,1505.2,340.4,-0.8,1.8,2471.391,13.29,0.045,116.0
2023-06-14T00:22:03,42.805,6.029,0.047,-0.024,-0.03,101.0,102.0,101.0,13.4,1505.2,329.0,-0.8,1.8,2471.408,13.29,0.052,117.0
2023-06-14T00:25:03,42.805,6.029,0.042,-0.023,0.017,101.0,103.0,101.0,13.3,1505.2,349.3,-0.8,1.8,2471.422,13.29,0.047,118.7
2023-06-14T00:28:03,42.805,6.029,0.052,-0.021,-0.024,100.0,103.0,102.0,13.4,1505.2,323.1,-0.8,1.8,2471.418,13.29,0.056,112.0
2023-06-14T00:31:03,42.805,6.029,0.06,-0.042,-0.038,103.0,101.0,102.0,13.4,1505.2,327.6,-0.7,1.8,2471.39,13.29,0.073,125.0
2023-06-14T00:34:03,42.805,6.029,0.034,-0.017,-0.02,102.0,102.0,101.0,13.3,1505.2,346.7,-0.8,1.8,2471.418,13.29,0.038,116.6
2023-06-14T00:37:03,42.805,6.029,0.027,0.005,-0.016,104.0,100.0,101.0,13.3,1505.2,320.1,-0.8,1.8,2471.404,13.29,0.027,79.5
2023-06-14T00:40:03,42.805,6.029,0.043,-0.013,-0.034,103.0,103.0,100.0,13.3,1505.2,338.9,-0.8,1.8,2471.435,13.29,0.044,106.8
2023-06-14T00:43:03,42.805,6.029,0.04,-0.031,-0.021,101.0,101.0,101.0,13.3,1505.2,343.8,-0.7,1.8,2471.4,13.29,0.05,127.8
2023-06-14T00:46:03,42.805,6.029,0.042,-0.007,-0.015,101.0,102.0,101.0,13.4,1505.2,337.3,-0.8,1.8,2471.381,13.29,0.042,99.5
2023-06-14T00:49:03,42.805,6.029,0.043,-0.029,-0.025,101.0,100.0,102.0,13.4,1505.2,324.1,-0.8,1.8,2471.438,13.29,0.051,124.0
2023-06-14T00:52:03,42.805,6.029,0.051,0.002,0.011,103.0,101.0,101.0,13.3,1505.2,338.3,-0.8,1.8,2471.404,13.29,0.051,87.8
2023-06-14T00:55:03,42.805,6.029,0.043,-0.027,-0.008,101.0,102.0,101.0,13.3,1505.2,345.3,-0.7,1.8,2471.414,13.29,0.05,122.1
2023-06-14T00:58:03,42.805,6.029,0.027,-0.025,-0.043,103.0,102.0,101.0,13.4,1505.2,340.1,-0.8,1.8,2471.435,13.29,0.036,132.8
2023-06-14T01:01:03,42.805,6.029,0.043,-0.005,-0.019,102.0,102.0,100.0,13.4,1505.2,337.7,-0.7,1.8,2471.435,13.29,0.043,96.6
2023-06-14T01:04:03,42.805,6.029,-0.001,0.001,-0.021,103.0,103.0,102.0,13.4,1505.2,343.4,-0.8,1.8,2471.426,13.29,0.001,315.0
2023-06-14T01:07:03,42.805,6.029,0.055,0.009,0.016,101.0,102.0,101.0,13.4,1505.2,321.8,-0.8,1.8,2471.437,13.29,0.055,80.7
2023-06-14T01:10:03,42.805,6.029,0.018,-0.018,-0.014,101.0,100.0,102.0,13.4,1505.2,338.5,-0.7,1.8,2471.433,13.29,0.025,135.0
2023-06-14T01:13:03,42.805,6.029,0.043,-0.018,-0.008,102.0,101.0,101.0,13.4,1505.2,334.6,-0.8,1.8,2471.424,13.29,0.046,112.7
2023-06-14T01:16:03,42.805,6.029,0.024,0.003,-0.011,102.0,102.0,101.0,13.3,1505.2,333.9,-0.8,1.8,2471.415,13.29,0.024,82.9
2023-06-14T01:19:03,42.805,6.029,0.034,0.012,0.003,102.0,102.0,101.0,13.3,1505.2,328.6,-0.8,1.8,2471.448,13.29,0.036,70.6
2023-06-14T01:22:03,42.805,6.029,0.052,-0.021,-0.013,103.0,103.0,101.0,13.4,1505.2,337.8,-0.8,1.8,2471.401,13.29,0.056,112.0
2023-06-14T01:25:03,42.805,6.029,0.038,-0.022,0.003,104.0,102.0,100.0,13.4,1505.2,346.2,-0.8,1.8,2471.418,13.29,0.043,120.1
2023-06-14T01:28:03,42.805,6.029,0.022,-0.008,-0.022,103.0,103.0,101.0,13.4,1505.2,339.7,-0.7,1.8,2471.462,13.29,0.023,110.0
2023-06-14T01:31:03,42.805,6.029,0.044,-0.014,0.0,103.0,101.0,101.0,13.4,1505.2,335.0,-0.8,1.8,2471.411,13.29,0.046,107.6
2023-06-14T01:34:03,42.805,6.029,0.035,-0.041,-0.054,102.0,102.0,101.0,13.4,1505.2,339.7,-0.8,1.8,2471.425,13.29,0.053,139.5
2023-06-14T01:37:03,42.805,6.029,0.066,-0.034,0.0,104.0,101.0,102.0,13.4,1505.2,350.7,-0.8,1.8,2471.432,13.29,0.074,117.3
2023-06-14T01:40:03,42.805,6.029,0.032,-0.003,0.002,102.0,102.0,101.0,13.4,1505.2,322.7,-0.8,1.8,2471.411,13.29,0.032,95.4
2023-06-14T01:43:03,42.805,6.029,0.064,-0.011,-0.026,102.0,102.0,100.0,13.4,1505.2,331.6,-0.8,1.8,2471.456,13.29,0.064,99.8
2023-06-14T01:46:03,42.805,6.029,0.007,-0.013,-0.046,101.0,104.0,101.0,13.4,1505.2,350.9,-0.8,1.9,2471.44,13.29,0.014,151.7
2023-06-14T01:49:03,42.805,6.029,0.028,-0.014,-0.015,102.0,99.0,100.0,13.4,1505.2,336.6,-0.8,1.8,2471.475,13.29,0.031,116.6
2023-06-14T01:52:03,42.805,6.029,0.03,-0.012,-0.034,103.0,100.0,101.0,13.4,1505.2,334.2,-0.8,1.8,2471.458,13.29,0.032,111.8
2023-06-14T01:55:03,42.805,6.029,0.067,-0.015,-0.007,101.0,102.0,101.0,13.3,1505.2,335.2,-0.8,1.8,2471.447,13.29,0.068,102.6
2023-06-14T01:58:03,42.805,6.029,0.029,-0.011,-0.006,101.0,102.0,101.0,13.4,1505.2,342.6,-0.8,1.8,2471.472,13.29,0.031,110.8
2023-06-14T02:04:03,42.805,6.029,0.063,-0.025,-0.02,101.0,102.0,101.0,13.4,1505.2,331.8,-0.8,1.8,2471.524,13.28,0.067,111.6
2023-06-14T02:07:03,42.805,6.029,0.025,0.009,-0.009,102.0,101.0,101.0,13.4,1505.2,329.5,-0.7,1.8,2471.488,13.28,0.026,70.2
2023-06-14T02:10:03,42.805,6.029,0.051,-0.027,0.002,101.0,102.0,100.0,13.4,1505.2,346.4,-0.8,1.8,2471.501,13.28,0.057,117.9
2023-06-14T02:13:03,42.805,6.029,0.011,-0.011,-0.036,102.0,102.0,101.0,13.4,1505.2,346.4,-0.7,1.8,2471.501,13.28,0.015,135.0
2023-06-14T02:16:03,42.805,6.029,0.072,-0.024,-0.023,101.0,102.0,101.0,13.4,1505.2,321.6,-0.8,1.8,2471.481,13.29,0.075,108.4
2023-06-14T02:19:03,42.805,6.029,0.024,-0.016,-0.012,101.0,102.0,102.0,13.4,1505.2,337.0,-0.8,1.8,2471.498,13.29,0.028,123.7
2023-06-14T02:22:03,42.805,6.029,0.015,-0.022,-0.029,101.0,101.0,101.0,13.4,1505.2,345.0,-0.7,1.8,2471.459,13.29,0.026,145.7
2023-06-14T02:25:03,42.805,6.029,0.058,-0.018,-0.039,100.0,101.0,102.0,13.4,1505.2,322.0,-0.7,1.8,2471.479,13.29,0.06,107.2
2023-06-14T02:28:03,42.805,6.029,0.034,-0.018,0.0,101.0,102.0,100.0,13.4,1505.2,331.8,-0.8,1.8,2471.486,13.29,0.038,117.9
2023-06-14T02:31:03,42.805,6.029,0.033,-0.021,-0.001,101.0,102.0,102.0,13.4,1505.2,347.0,-0.8,1.8,2471.498,13.29,0.039,122.5
2023-06-14T02:34:03,42.805,6.029,0.046,-0.029,-0.027,101.0,101.0,101.0,13.4,1505.2,335.5,-0.8,1.8,2471.476,13.29,0.054,122.2
2023-06-14T02:37:03,42.805,6.029,0.032,-0.007,-0.024,102.0,101.0,101.0,13.4,1505.2,330.1,-0.8,1.8,2471.492,13.29,0.032,102.3
2023-06-14T02:40:03,42.805,6.029,0.016,-0.008,-0.024,100.0,102.0,102.0,13.4,1505.2,343.5,-0.8,1.8,2471.491,13.29,0.017,116.6
2023-06-14T02:43:03,42.805,6.029,0.045,-0.016,0.007,103.0,101.0,101.0,13.4,1505.2,333.8,-0.8,1.8,2471.512,13.29,0.047,109.6
2023-06-14T02:46:03,42.805,6.029,0.057,-0.007,0.002,101.0,102.0,101.0,13.4,1505.2,323.3,-0.7,1.8,2471.517,13.29,0.057,97.0
2023-06-14T02:49:03,42.805,6.029,0.053,-0.02,-0.039,102.0,102.0,101.0,13.4,1505.2,336.6,-0.8,1.8,2471.501,13.29,0.056,110.7
2023-06-14T02:52:03,42.805,6.029,0.05,-0.026,-0.031,101.0,102.0,101.0,13.4,1505.2,333.0,-0.7,1.8,2471.474,13.29,0.056,117.5
2023-06-14T02:55:03,42.805,6.029,0.004,-0.008,-0.039,101.0,101.0,101.0,13.4,1505.2,328.5,-0.8,1.8,2471.5,13.29,0.008,153.4
2023-06-14T02:58:03,42.805,6.029,0.037,-0.013,-0.024,102.0,102.0,101.0,13.4,1505.2,340.9,-0.8,1.8,2471.499,13.29,0.039,109.4
2023-06-14T03:04:03,42.805,6.029,0.048,-0.014,-0.002,101.0,100.0,101.0,13.4,1505.2,325.7,-0.8,1.8,2471.525,13.28,0.05,106.3
2023-06-14T03:07:03,42.805,6.029,0.031,-0.001,-0.012,103.0,102.0,101.0,13.4,1505.2,335.5,-0.8,1.8,2471.533,13.28,0.031,91.8
2023-06-14T03:10:03,42.805,6.029,0.052,-0.017,-0.041,102.0,102.0,101.0,13.4,1505.2,322.5,-0.8,1.8,2471.541,13.28,0.054,108.1
2023-06-14T03:13:03,42.805,6.029,0.029,-0.011,-0.029,102.0,101.0,101.0,13.3,1505.2,324.3,-0.8,1.8,2471.495,13.28,0.031,110.8
2023-06-14T03:16:03,42.805,6.029,0.037,-0.022,-0.009,102.0,101.0,101.0,13.4,1505.2,345.4,-0.7,1.8,2471.527,13.28,0.043,120.7
2023-06-14T03:19:03,42.805,6.029,0.038,-0.005,-0.034,101.0,102.0,100.0,13.4,1505.2,323.8,-0.8,1.8,2471.495,13.29,0.038,97.5
2023-06-14T03:22:03,42.805,6.029,0.063,-0.034,-0.043,101.0,101.0,100.0,13.4,1505.2,332.4,-0.8,1.8,2471.501,13.29,0.071,118.4
2023-06-14T03:25:03,42.805,6.029,0.047,-0.032,-0.023,101.0,102.0,101.0,13.4,1505.2,336.0,-0.7,1.8,2471.526,13.29,0.056,124.2
2023-06-14T03:28:03,42.805,6.029,0.027,-0.034,-0.051,102.0,101.0,101.0,13.3,1505.2,339.7,-0.8,1.8,2471.52,13.29,0.043,141.5
2023-06-14T03:31:03,42.805,6.029,0.027,-0.034,-0.039,102.0,101.0,101.0,13.4,1505.2,345.7,-0.8,1.8,2471.493,13.29,0.043,141.5
2023-06-14T03:34:03,42.805,6.029,0.041,-0.024,0.009,102.0,102.0,100.0,13.4,1505.2,341.9,-0.8,1.8,2471.518,13.29,0.047,120.3
2023-06-14T03:37:03,42.805,6.029,0.03,0.009,0.003,100.0,102.0,102.0,13.3,1505.2,320.9,-0.7,1.8,2471.495,13.29,0.031,73.3
2023-06-14T03:40:03,42.805,6.029,0.034,-0.017,-0.031,102.0,102.0,101.0,13.3,1505.2,331.2,-0.7,1.8,2471.51,13.29,0.038,116.6
2023-06-14T03:43:03,42.805,6.029,0.035,-0.039,-0.027,101.0,101.0,101.0,13.4,1505.2,348.2,-0.7,1.8,2471.485,13.29,0.052,138.1
2023-06-14T03:46:03,42.805,6.029,0.05,-0.015,0.006,103.0,101.0,101.0,13.4,1505.2,330.6,-0.7,1.8,2471.482,13.29,0.052,106.7
2023-06-14T03:49:03,42.805,6.029,0.025,-0.016,-0.049,100.0,102.0,100.0,13.4,1505.2,347.5,-0.7,1.8,2471.49,13.29,0.029,122.6
2023-06-14T03:52:03,42.805,6.029,0.074,-0.018,-0.031,102.0,101.0,100.0,13.4,1505.2,325.3,-0.8,1.8,2471.499,13.29,0.076,103.7
2023-06-14T03:55:03,42.805,6.029,0.019,-0.031,-0.055,102.0,101.0,101.0,13.4,1505.2,342.6,-0.8,1.8,2471.506,13.29,0.036,148.5
2023-06-14T03:58:03,42.805,6.029,0.034,0.006,0.001,101.0,101.0,101.0,13.4,1505.2,344.7,-0.8,1.8,2471.492,13.29,0.034,80.0
2023-06-14T04:01:03,42.805,6.029,0.039,-0.019,0.008,101.0,101.0,101.0,13.3,1505.2,341.9,-0.8,1.8,2471.53,13.29,0.043,116.0
2023-06-14T04:04:03,42.805,6.029,0.037,-0.01,0.002,101.0,102.0,101.0,13.4,1505.2,348.6,-0.8,1.8,2471.492,13.29,0.038,105.1
2023-06-14T04:07:03,42.805,6.029,0.031,-0.037,-0.003,100.0,101.0,101.0,13.4,1505.2,346.4,-0.8,1.8,2471.522,13.29,0.048,140.0
2023-06-14T04:10:03,42.805,6.029,0.032,-0.013,-0.004,102.0,101.0,99.0,13.4,1505.2,342.6,-0.8,1.8,2471.512,13.29,0.034,112.1
2023-06-14T04:13:03,42.805,6.029,0.047,-0.036,-0.016,103.0,102.0,101.0,13.4,1505.2,344.5,-0.8,1.8,2471.513,13.29,0.059,127.5
2023-06-14T04:16:03,42.805,6.029,0.021,0.006,0.008,102.0,100.0,101.0,13.3,1505.2,328.7,-0.8,1.8,2471.469,13.29,0.021,74.1
2023-06-14T04:19:03,42.805,6.029,0.045,-0.031,-0.036,100.0,102.0,102.0,13.4,1505.2,326.3,-0.8,1.8,2471.498,13.29,0.054,124.6
2023-06-14T04:22:03,42.805,6.029,0.028,-0.003,-0.033,102.0,101.0,100.0,13.4,1505.2,340.1,-0.7,1.8,2471.536,13.29,0.028,96.1
2023-06-14T04:25:03,42.805,6.029,0.05,-0.019,-0.008,102.0,101.0,101.0,13.3,1505.2,332.9,-0.8,1.8,2471.494,13.29,0.053,110.8
2023-06-14T04:28:03,42.805,6.029,0.034,-0.009,-0.021,101.0,102.0,101.0,13.4,1505.2,344.4,-0.8,1.8,2471.54,13.29,0.035,104.8
2023-06-14T04:31:03,42.805,6.029,0.057,-0.007,0.001,102.0,102.0,101.0,13.4,1505.2,323.8,-0.8,1.9,2471.517,13.29,0.057,97.0
2023-06-14T04:34:03,42.805,6.029,0.046,-0.013,-0.024,101.0,101.0,101.0,13.4,1505.2,329.5,-0.8,1.8,2471.51,13.29,0.047,105.8
2023-06-14T04:37:03,42.805,6.029,0.031,-0.009,-0.025,101.0,102.0,101.0,13.4,1505.2,350.9,-0.8,1.8,2471.509,13.29,0.032,106.2
2023-06-14T04:40:03,42.805,6.029,0.048,-0.011,0.012,102.0,100.0,102.0,13.4,1505.2,347.7,-0.7,1.8,2471.529,13.29,0.049,102.9
2023-06-14T04:43:03,42.805,6.029,0.071,-0.055,-0.058,102.0,100.0,101.0,13.4,1505.2,328.7,-0.8,1.8,2471.488,13.29,0.089,127.8
2023-06-14T04:46:03,42.805,6.029,0.022,-0.002,-0.043,103.0,100.0,101.0,13.4,1505.2,335.0,-0.8,1.8,2471.486,13.29,0.022,95.2
2023-06-14T04:49:03,42.805,6.029,0.024,-0.038,-0.044,102.0,101.0,101.0,13.4,1505.2,344.4,-0.8,1.8,2471.499,13.29,0.044,147.7
2023-06-14T04:52:03,42.805,6.029,0.016,-0.013,-0.013,102.0,102.0,101.0,13.4,1505.2,333.0,-0.8,1.8,2471.489,13.29,0.02,129.1
2023-06-14T04:55:03,42.805,6.029,0.008,-0.025,-0.059,102.0,101.0,101.0,13.4,1505.2,337.8,-0.8,1.8,2471.529,13.29,0.026,162.3
2023-06-14T04:58:03,42.805,6.029,0.027,-0.008,-0.021,101.0,101.0,101.0,13.3,1505.2,332.1,-0.8,1.8,2471.505,13.29,0.028,106.5
2023-06-14T05:04:03,42.805,6.029,0.018,0.007,-0.003,101.0,101.0,100.0,13.4,1505.2,326.8,-0.8,1.8,2471.56,13.28,0.019,68.8
2023-06-14T05:07:03,42.805,6.029,0.052,-0.029,-0.015,102.0,101.0,100.0,13.4,1505.2,345.7,-0.8,1.8,2471.55,13.28,0.059,119.1
2023-06-14T05:10:03,42.805,6.029,0.042,-0.021,-0.01,101.0,102.0,100.0,13.4,1505.2,333.4,-0.8,1.8,2471.573,13.28,0.046,116.6
2023-06-14T05:13:03,42.805,6.029,0.015,-0.004,-0.019,101.0,101.0,101.0,13.4,1505.2,327.5,-0.8,1.8,2471.574,13.28,0.015,104.9
2023-06-14T05:16:03,42.805,6.029,0.043,-0.019,-0.029,101.0,100.0,101.0,13.3,1505.2,337.9,-0.8,1.8,2471.52,13.28,0.047,113.8
2023-06-14T05:19:03,42.805,6.029,0.027,-0.02,-0.041,101.0,101.0,100.0,13.4,1505.2,334.3,-0.7,1.8,2471.507,13.29,0.033,126.5
2023-06-14T05:22:03,42.805,6.029,0.02,-0.027,0.003,103.0,101.0,100.0,13.3,1505.2,331.3,-0.8,1.8,2471.507,13.29,0.033,143.5
2023-06-14T05:25:03,42.805,6.029,0.02,-0.01,-0.016,101.0,100.0,101.0,13.3,1505.2,343.0,-0.8,1.8,2471.495,13.29,0.022,116.6
2023-06-14T05:28:03,42.805,6.029,0.029,-0.01,-0.016,101.0,102.0,100.0,13.4,1505.2,338.0,-0.8,1.9,2471.519,13.29,0.03,109.0
2023-06-14T05:31:03,42.805,6.029,0.053,-0.017,0.001,101.0,101.0,100.0,13.3,1505.2,324.5,-0.7,1.8,2471.491,13.29,0.055,107.8
2023-06-14T05:34:03,42.805,6.029,0.039,-0.002,0.002,102.0,101.0,101.0,13.4,1505.2,332.9,-0.7,1.8,2471.545,13.29,0.039,92.9
2023-06-14T05:37:03,42.805,6.029,0.057,-0.007,-0.008,102.0,100.0,101.0,13.3,1505.2,330.1,-0.8,1.8,2471.52,13.29,0.057,97.0
2023-06-14T05:40:03,42.805,6.029,0.032,-0.017,-0.026,101.0,101.0,101.0,13.4,1505.2,346.8,-0.8,1.8,2471.531,13.29,0.036,118.0
2023-06-14T05:43:03,42.805,6.029,0.042,-0.008,0.0,104.0,101.0,99.0,13.4,1505.2,323.3,-0.8,1.8,2471.511,13.29,0.042,100.8
2023-06-14T05:46:03,42.805,6.029,0.039,0.012,-0.031,100.0,102.0,101.0,13.3,1505.2,322.3,-0.8,1.8,2471.53,13.29,0.04,72.9
2023-06-14T05:49:03,42.805,6.029,0.054,0.002,0.01,102.0,100.0,101.0,13.4,1505.2,339.4,-0.8,1.8,2471.508,13.29,0.054,87.9
2023-06-14T05:52:03,42.805,6.029,0.056,-0.007,-0.022,102.0,101.0,101.0,13.4,1505.2,326.8,-0.8,1.8,2471.519,13.29,0.056,97.1
2023-06-14T05:55:03,42.805,6.029,0.04,-0.004,-0.013,103.0,100.0,100.0,13.4,1505.2,326.8,-0.8,1.8,2471.47,13.29,0.04,95.7
2023-06-14T05:58:03,42.805,6.029,0.03,-0.016,-0.007,101.0,103.0,101.0,13.4,1505.2,336.5,-0.7,1.9,2471.514,13.29,0.034,118.1
2023-06-14T06:04:03,42.805,6.029,0.038,-0.023,-0.002,102.0,102.0,101.0,13.4,1505.2,333.4,-0.8,1.9,2471.533,13.28,0.044,121.2
2023-06-14T06:07:03,42.805,6.029,0.048,-0.023,-0.046,102.0,102.0,101.0,13.4,1505.2,323.1,-0.8,1.8,2471.524,13.28,0.053,115.6
2023-06-14T06:10:03,42.805,6.029,0.028,0.025,0.022,102.0,101.0,101.0,13.4,1505.2,330.9,-0.8,1.8,2471.505,13.28,0.037,48.2
2023-06-14T06:13:03,42.805,6.029,0.036,-0.004,0.02,102.0,102.0,101.0,13.3,1505.2,330.3,-0.8,1.8,2471.529,13.28,0.036,96.3
2023-06-14T06:16:03,42.805,6.029,0.013,-0.003,-0.027,102.0,101.0,101.0,13.4,1505.2,333.4,-0.8,1.8,2471.489,13.29,0.013,103.0
2023-06-14T06:19:03,42.805,6.029,0.054,-0.027,-0.02,102.0,101.0,101.0,13.3,1505.2,332.1,-0.8,1.8,2471.479,13.29,0.06,116.6
2023-06-14T06:22:03,42.805,6.029,0.026,-0.009,-0.02,101.0,102.0,101.0,13.4,1505.2,322.0,-0.8,1.8,2471.503,13.29,0.027,109.1
2023-06-14T06:25:03,42.805,6.029,0.055,-0.015,-0.013,101.0,104.0,101.0,13.3,1505.2,337.9,-0.8,1.8,2471.488,13.29,0.057,105.3
2023-06-14T06:28:03,42.805,6.029,0.036,0.001,-0.018,102.0,101.0,101.0,13.3,1505.2,326.3,-0.8,1.8,2471.43,13.29,0.036,88.4
2023-06-14T06:31:03,42.805,6.029,0.018,-0.022,-0.033,101.0,101.0,101.0,13.4,1505.2,341.5,-0.8,1.8,2471.471,13.29,0.028,140.7
2023-06-14T06:34:03,42.805,6.029,0.019,0.002,0.005,103.0,101.0,101.0,13.4,1505.2,333.8,-0.8,1.8,2471.472,13.29,0.019,84.0
2023-06-14T06:37:03,42.805,6.029,0.032,-0.02,-0.028,103.0,101.0,101.0,13.4,1505.2,324.4,-0.8,1.8,2471.448,13.29,0.037,122.0
2023-06-14T06:40:03,42.805,6.029,0.024,-0.005,-0.002,102.0,101.0,101.0,13.3,1505.2,335.2,-0.8,1.8,2471.45,13.29,0.024,101.8
2023-06-14T06:43:03,42.805,6.029,0.039,-0.004,-0.042,102.0,101.0,101.0,13.4,1505.2,329.5,-0.8,1.8,2471.46,13.29,0.039,95.9
2023-06-14T06:46:03,42.805,6.029,0.012,-0.007,-0.044,101.0,102.0,101.0,13.4,1505.2,331.3,-0.8,1.8,2471.48,13.29,0.013,120.3
2023-06-14T06:49:03,42.805,6.029,0.027,-0.027,-0.05,101.0,101.0,100.0,13.4,1505.2,328.5,-0.8,1.8,2471.446,13.29,0.038,135.0
2023-06-14T06:52:03,42.805,6.029,0.06,-0.043,-0.012,102.0,101.0,101.0,13.4,1505.2,343.7,-0.8,1.8,2471.458,13.29,0.073,125.6
2023-06-14T06:55:03,42.805,6.029,0.025,0.0,-0.036,102.0,101.0,101.0,13.4,1505.2,328.2,-0.8,1.8,2471.463,13.29,0.025,90.0
2023-06-14T06:58:03,42.805,6.029,0.025,-0.007,-0.02,101.0,102.0,101.0,13.4,1505.2,323.8,-0.8,1.8,2471.464,13.29,0.025,105.6
2023-06-14T07:04:03,42.805,6.029,0.028,0.009,0.002,102.0,101.0,101.0,13.4,1505.2,327.4,-0.8,1.8,2471.45,13.28,0.029,72.2
2023-06-14T07:07:03,42.805,6.029,0.047,-0.01,-0.017,101.0,102.0,101.0,13.4,1505.2,333.4,-0.8,1.8,2471.503,13.28,0.048,102.0
2023-06-14T07:10:03,42.805,6.029,0.0,0.011,-0.044,101.0,101.0,101.0,13.3,1505.2,329.2,-0.8,1.8,2471.475,13.28,0.011,0.0
2023-06-14T07:13:03,42.805,6.029,0.032,-0.01,-0.022,102.0,102.0,100.0,13.4,1505.2,333.4,-0.8,1.8,2471.49,13.28,0.033,107.4
2023-06-14T07:16:03,42.805,6.029,0.063,-0.036,-0.012,102.0,102.0,100.0,13.3,1505.2,352.3,-0.8,1.8,2471.469,13.28,0.072,119.7
2023-06-14T07:19:03,42.805,6.029,0.047,-0.01,-0.022,101.0,104.0,101.0,13.4,1505.2,327.7,-0.8,1.8,2471.45,13.29,0.048,102.0
2023-06-14T07:22:03,42.805,6.029,0.07,-0.035,-0.022,102.0,101.0,101.0,13.4,1505.2,338.4,-0.8,1.8,2471.426,13.29,0.078,116.6
2023-06-14T07:25:03,42.805,6.029,0.048,-0.006,-0.032,101.0,101.0,101.0,13.4,1505.2,328.4,-0.8,1.8,2471.45,13.29,0.048,97.1
2023-06-14T07:28:03,42.805,6.029,0.044,-0.034,-0.03,101.0,101.0,100.0,13.3,1505.2,345.0,-0.8,1.8,2471.435,13.29,0.055,127.7
2023-06-14T07:31:03,42.805,6.029,0.055,-0.017,0.0,101.0,101.0,101.0,13.3,1505.2,322.0,-0.8,1.8,2471.433,13.29,0.057,107.2
2023-06-14T07:34:03,42.805,6.029,0.036,-0.021,-0.004,102.0,100.0,101.0,13.4,1505.2,338.8,-0.8,1.8,2471.46,13.29,0.041,120.3
2023-06-14T07:37:03,42.805,6.029,0.029,-0.014,-0.035,102.0,102.0,101.0,13.4,1505.2,335.2,-0.8,1.8,2471.434,13.29,0.032,115.8
2023-06-14T07:40:03,42.805,6.029,0.039,-0.029,-0.024,101.0,102.0,101.0,13.4,1505.2,339.1,-0.7,1.8,2471.434,13.29,0.048,126.6
2023-06-14T07:43:03,42.805,6.029,0.043,0.011,0.018,103.0,101.0,101.0,13.4,1505.2,327.9,-0.8,1.8,2471.428,13.29,0.044,75.7
2023-06-14T07:46:03,42.805,6.029,0.042,-0.037,-0.042,102.0,101.0,101.0,13.4,1505.2,350.9,-0.8,1.8,2471.401,13.29,0.055,131.4
2023-06-14T07:49:03,42.805,6.029,0.036,0.018,0.003,102.0,102.0,101.0,13.3,1505.2,326.9,-0.8,1.8,2471.427,13.29,0.04,63.4
2023-06-14T07:52:03,42.805,6.029,0.062,-0.041,-0.01,102.0,100.0,101.0,13.4,1505.2,341.9,-0.8,1.8,2471.389,13.29,0.074,123.5
2023-06-14T07:55:03,42.805,6.029,0.025,-0.039,-0.032,101.0,100.0,101.0,13.4,1505.2,342.7,-0.8,1.8,2471.445,13.29,0.046,147.3
2023-06-14T07:58:03,42.805,6.029,0.053,-0.003,0.0,101.0,101.0,100.0,13.4,1505.2,329.8,-0.8,1.8,2471.408,13.29,0.053,93.2
2023-06-14T08:04:03,42.805,6.029,0.031,-0.006,-0.03,102.0,101.0,100.0,13.4,1505.2,328.5,-0.8,1.8,2471.432,13.28,0.031,101.0
2023-06-14T08:07:03,42.805,6.029,0.042,-0.017,-0.016,101.0,102.0,100.0,13.4,1505.2,329.8,-0.8,1.8,2471.477,13.28,0.045,112.0
2023-06-14T08:10:03,42.805,6.029,0.018,0.012,-0.02,102.0,103.0,100.0,13.4,1505.2,347.4,-0.8,1.8,2471.434,13.28,0.021,56.3
2023-06-14T08:13:03,42.805,6.029,0.044,-0.007,0.005,101.0,101.0,101.0,13.4,1505.2,322.9,-0.8,1.8,2471.449,13.28,0.044,99.0
2023-06-14T08:16:03,42.805,6.029,0.041,-0.017,-0.011,102.0,101.0,100.0,13.4,1505.2,339.0,-0.7,1.8,2471.408,13.28,0.044,112.5
2023-06-14T08:19:03,42.805,6.029,0.044,-0.031,-0.001,100.0,102.0,101.0,13.4,1505.2,332.9,-0.8,1.8,2471.396,13.28,0.053,125.2
2023-06-14T08:22:03,42.805,6.029,0.052,-0.014,-0.009,102.0,100.0,101.0,13.4,1505.2,336.8,-0.8,1.8,2471.411,13.29,0.053,105.1
2023-06-14T08:25:03,42.805,6.029,0.042,-0.025,-0.029,101.0,100.0,102.0,13.4,1505.2,340.1,-0.8,1.8,2471.385,13.29,0.048,120.8
2023-06-14T08:28:03,42.805,6.029,0.034,-0.002,-0.007,103.0,102.0,100.0,13.3,1505.2,343.5,-0.7,1.8,2471.414,13.29,0.034,93.4
2023-06-14T08:31:03,42.805,6.029,0.044,-0.009,-0.004,100.0,101.0,101.0,13.3,1505.2,331.3,-0.7,1.8,2471.369,13.29,0.044,101.6
2023-06-14T08:34:03,42.805,6.029,0.024,0.004,-0.008,102.0,102.0,101.0,13.3,1505.2,328.2,-0.8,1.8,2471.394,13.29,0.024,80.5
2023-06-14T08:37:03,42.805,6.029,0.043,-0.021,0.011,102.0,101.0,101.0,13.4,1505.2,339.0,-0.8,1.8,2471.39,13.29,0.047,116.0
2023-06-14T08:40:03,42.805,6.029,0.044,-0.016,-0.023,102.0,102.0,100.0,13.4,1505.2,330.3,-0.8,1.8,2471.416,13.29,0.046,110.0
2023-06-14T08:43:03,42.805,6.029,0.011,-0.029,-0.067,101.0,102.0,101.0,13.3,1505.2,338.6,-0.7,1.8,2471.388,13.29,0.031,159.2
2023-06-14T08:46:03,42.805,6.029,0.035,-0.024,-0.021,102.0,101.0,101.0,13.4,1505.2,348.9,-0.7,1.8,2471.387,13.29,0.042,124.4
2023-06-14T08:49:03,42.805,6.029,0.033,-0.003,-0.023,102.0,102.0,100.0,13.4,1505.2,323.3,-0.8,1.8,2471.36,13.29,0.033,95.2
2023-06-14T08:52:03,42.805,6.029,0.047,-0.033,-0.046,103.0,101.0,100.0,13.3,1505.2,339.1,-0.7,1.8,2471.397,13.29,0.057,125.1
2023-06-14T08:55:03,42.805,6.029,0.044,-0.002,0.02,101.0,101.0,100.0,13.4,1505.2,328.1,-0.7,1.8,2471.358,13.29,0.044,92.6
2023-06-14T08:58:03,42.805,6.029,0.035,-0.034,-0.015,101.0,102.0,101.0,13.4,1505.2,337.9,-0.8,1.8,2471.392,13.29,0.048,134.2
2023-06-14T09:04:03,42.805,6.029,0.019,-0.005,-0.034,102.0,102.0,100.0,13.4,1505.2,338.0,-0.8,1.8,2471.403,13.28,0.019,104.7
2023-06-14T09:07:03,42.805,6.029,0.016,0.002,-0.018,102.0,102.0,101.0,13.3,1505.2,318.9,-0.8,1.8,2471.404,13.28,0.016,82.9
2023-06-14T09:10:03,42.805,6.029,0.031,-0.01,-0.034,102.0,100.0,101.0,13.3,1505.2,340.1,-0.8,1.8,2471.406,13.28,0.032,107.9
2023-06-14T09:13:03,42.805,6.029,0.027,-0.026,-0.042,100.0,100.0,102.0,13.4,1505.2,340.2,-0.8,1.9,2471.405,13.28,0.037,133.9
2023-06-14T09:16:03,42.805,6.029,0.027,-0.008,-0.036,102.0,101.0,100.0,13.4,1505.2,342.7,-0.8,1.8,2471.369,13.29,0.028,106.5
2023-06-14T09:19:03,42.805,6.029,0.052,-0.028,-0.01,100.0,101.0,100.0,13.3,1505.2,336.9,-0.8,1.8,2471.35,13.29,0.059,118.3
2023-06-14T09:22:03,42.805,6.029,0.019,0.009,-0.001,101.0,103.0,100.0,13.4,1505.2,327.5,-0.8,1.8,2471.357,13.29,0.021,64.7
2023-06-14T09:25:03,42.805,6.029,0.031,-0.012,-0.014,102.0,102.0,101.0,13.4,1505.2,333.4,-0.8,1.8,2471.342,13.29,0.033,111.2
2023-06-14T09:28:03,42.805,6.029,0.052,-0.004,0.0,101.0,101.0,101.0,13.3,1505.2,328.2,-0.8,1.8,2471.352,13.29,0.052,94.4
2023-06-14T09:31:03,42.805,6.029,0.029,-0.022,-0.029,99.0,100.0,101.0,13.4,1505.2,345.0,-0.8,1.8,2471.384,13.29,0.036,127.2
2023-06-14T09:34:03,42.805,6.029,0.05,0.008,-0.016,99.0,101.0,101.0,13.4,1505.2,321.6,-0.8,1.8,2471.394,13.29,0.05,80.9
2023-06-14T09:37:03,42.805,6.029,0.026,-0.019,-0.024,103.0,100.0,101.0,13.4,1505.2,334.3,-0.8,1.8,2471.37,13.29,0.032,126.2
2023-06-14T09:40:03,42.805,6.029,0.022,-0.01,-0.019,103.0,100.0,101.0,13.4,1505.2,327.9,-0.7,1.8,2471.342,13.29,0.024,114.4
2023-06-14T09:43:03,42.805,6.029,0.038,-0.003,-0.018,101.0,101.0,101.0,13.4,1505.2,346.2,-0.8,1.8,2471.352,13.29,0.038,94.5
2023-06-14T09:46:03,42.805,6.029,0.083,-0.006,0.021,100.0,101.0,101.0,13.3,1505.2,321.8,-0.8,1.8,2471.363,13.29,0.083,94.1
2023-06-14T09:49:03,42.805,6.029,0.035,-0.024,-0.051,101.0,101.0,100.0,13.3,1505.2,338.4,-0.7,1.8,2471.376,13.29,0.042,124.4